"Pseudo-MPEC" for C3ZRJ82

Created 2020 Nov 23 7:07:17 UT using Find_Orb

Click here for an explanation of pseudo-MPECs

 
 Astrometry: 
     C3ZRJ82  C2020 11 21.21373703 02 36.27 +49 13 43.3    ~BL6b 21.30GVNEOCPG96
     C3ZRJ82  C2020 11 21.21895803 02 39.23 +49 13 17.8    ~BL6b 21.53GVNEOCPG96
     C3ZRJ82  C2020 11 21.22417203 02 42.15 +49 12 52.6    ~BL6b 20.56GVNEOCPG96
     C3ZRJ82  C2020 11 21.22938603 02 45.15 +49 12 27.4    ~BL6b 21.01GVNEOCPG96
     C3ZRJ82 KC2020 11 21.28246203 03 15.07 +49 08 04.8    ~BL77 20.84GVNEOCPV06
     C3ZRJ82 KC2020 11 21.28433603 03 16.14 +49 07 55.3    ~BL77 21.24GVNEOCPV06
     C3ZRJ82 KC2020 11 21.35260103 03 54.49 +49 02 10.2    ~BL8q 20.61GVNEOCPV06
     C3ZRJ82 KC2020 11 21.35452003 03 55.59 +49 02 00.8    ~BL8q 20.75GVNEOCPV06
     C3ZRJ82 KC2020 11 21.35644803 03 56.67 +49 01 50.8    ~BL8q 20.13GVNEOCPV06
     C3ZRJ82 1C2020 11 21.79832 03 08 20.94 +48 24 56.3    ~BLK7 20.7 VVNEOCP033
     C3ZRJ82 1C2020 11 21.80052 03 08 22.14 +48 24 45.9    ~BLK7 20.5 VVNEOCP033
     C3ZRJ82 1C2020 11 21.80272 03 08 23.33 +48 24 35.5    ~BLK7 21.7 VVNEOCP033
     C3ZRJ82 bC2020 11 21#(X;ps4(;yO2T.[U2iAstrometryS!q5N-smpD^fb._P6:F5i2CwL01
     C3ZRJ82 bC2020 11 21mx/]redacted;Qclickd.H6Us*KyJ7@fF=\@=L/Oo`BHI%y3gG3$L01
     C3ZRJ82 bC2020 11 21W`.\_b,Q)sQ/jg)-9l\cR$e!^4Khere@H)wb73@S]9^F]KOj?A(ML01
     C3ZRJ82 bC2020 11 21^GNve++\'Cp)wj\Z]@@EUddPjF#Nmfor+KYGMfXexplanation!mL01
     C3ZRJ82 KC2020 11 22.04370603 10 32.87 +48 05 00.9    ~BM1b 20.1 GVNEOCPI93
     C3ZRJ82 KC2020 11 22.05047303 10 36.40 +48 04 26.3    ~BM1b 20.4 GVNEOCPI93
     C3ZRJ82 KC2020 11 22.13059703 11 27.93 +47 57 56.0    ~BM3b 20.61GVNEOCPI52
     C3ZRJ82 KC2020 11 22.13227903 11 28.79 +47 57 48.2    ~BM3b 20.14GVNEOCPI52
     C3ZRJ82 KC2020 11 22.13396103 11 29.64 +47 57 40.4    ~BM3b 21.57GVNEOCPI52
     C3ZRJ82 KC2020 11 23UKvR;22x,8rQG\wLT0_%CaRaMe@@Aps\(_44R,?yh[Qnx_IbEN+,204
     C3ZRJ82 KC2020 11 23[F3F=S@^#mu+Scs+p8^8N5au0ht8MZsMGsD:)#aXb:A[ykM^^!My204
     C3ZRJ82 KC2020 11 23.14152203 20 13.17 +46 35 47.3    ~BN3q 20.17GVNEOCPI52
     C3ZRJ82 KC2020 11 23.14404203 20 14.28 +46 35 35.6    ~BN3q 20.33GVNEOCPI52
     C3ZRJ82 KC2020 11 23.14656203 20 15.56 +46 35 24.6    ~BN3q 21.48GVNEOCPI52

Station data:
(033) Karl Schwarzschild Observatory, Tautenburg  (N50.980140 E11.711240)
   Germany. 1.3-m Schmidt.
(204) Schiaparelli Observatory  (N45.867933 E8.770800)  Italy.  Observer L.
   Buzzi. 0.60-m f/4.64 Newtonian + CCD.
(G96) Mt. Lemmon Survey  (N32.442754 W110.788720)  US/Arizona.  Observers T.
   A. Pruyne, B. M. Africano, E. J. Christensen, G. A. Farneth, D. C. Fuls,
   A. R. Gibbs, A. D. Grauer, H. Gröller, J. A. Johnson, R. A. Kowalski, S.
   M. Larson, G. J. Leonard, D. Rankin, R. L. Seaman, F. C. Shelly. 1.5-m
   reflector + 10K CCD.
(I52) Steward Observatory, Mt. Lemmon Station  (N32.442547 W110.788920)
   US/Arizona.  Observers T. A. Pruyne, B. M. Africano, E. J. Christensen, G.
   A. Farneth, D. C. Fuls, A. R. Gibbs, A. D. Grauer, H. Gröller, J. A.
   Johnson, R. A. Kowalski, S. M. Larson, G. J. Leonard, D. Rankin, R. L.
   Seaman, F. C. Shelly. 1.0-m reflector + CCD.
(I93) St Pardon de Conques  (N44.558710 W0.203000)  France.  Observer F.
   Losse. 0.40-m f/3.7 reflector + CCD.
(L01) Višnjan Observatory, Tičan  (N45.290900 E13.749300)  Croatia.
   Observers K. Korlević, E. Pettarin. Measurer E. Pettarin. 1.0-m f/2.9
   reflector + CCD.
(V06) Catalina Sky Survey-Kuiper  (N32.416847 W110.732550)  US/Arizona.
   Observers T. A. Pruyne, B. M. Africano, E. J. Christensen, G. A. Farneth,
   D. C. Fuls, A. R. Gibbs, A. D. Grauer, H. Gröller, J. A. Johnson, R. A.
   Kowalski, S. M. Larson, G. J. Leonard, D. Rankin, R. L. Seaman, F. C.
   Shelly. 1.55-m reflector + CCD.

Orbital elements:  C3ZRJ82
   Perihelion 2020 Oct 19.274405 +/- 0.0151 TT =  6:35:08 (JD 2459141.774405)
Epoch 2020 Nov 23.0 TT = JDT 2459176.5   Earth MOID: 0.0911   AutoNEOCP
M  10.09682680 +/- 0.06             (J2000 ecliptic)
n   0.29076037 +/- 0.00197          Peri.  110.62448 +/- 0.045
a   2.25655490 +/- 0.0102           Node   270.42779 +/- 0.024
e   0.5521125 +/- 0.002             Incl.    6.07810 +/- 0.018
P   3.39                   H 24.2   G  0.15   U  8.6  
q 1.01068257 +/- 0.000121    Q 3.50242723 +/- 0.0201
From 26 observations 2020 Nov. 21-23 (46.4 hr); mean residual 0".26
Residuals in arcseconds: 
201121 G96  .18+  .10-    201121 033  .03-  .16-    201122 I52  .25+  .18-    
201121 G96  .11+  .17-    201121 033  .10-  .03-    201122 I52  .04+  .07-    
201121 G96  .27-  .08+    201121 033  .27-  .09+    201122 I52  .27-  .04+    
201121 G96  .17+  .38+    201121 L01  .36-  .13-    201123 204  .17-  .28-    
201121 V06  .03+  .08+    201121 L01  .10-  .76-    201123 204  .05+  .46+    
201121 V06  .19+  .06-    201121 L01  .35+  .08+    201123 I52  .20+  .26-    
201121 V06  .16-  .17-    201121 L01  .05+  .28-    201123 I52  .50-  .28-    
201121 V06  .02+  .24+    201122 I93  .23+  .58+    201123 I52  .55+  .40+    
201121 V06  .04-  .10+    201122 I93  .08-  .12+    

Ephemerides (geocentric):
Date (UTC) HH   RA              Dec         delta   r     elong  mag " sig PA
---- -- -- --  -------------   -----------  ------ ------ -----  --- ---- ---
2020 11 23 07  03 21 22.269   +46 23 40.39  .12679 1.1019 153.0 21.1 .011 105
2020 11 23 08  03 21 42.416   +46 20 19.97  .12696 1.1021 153.1 21.1 8.1m  96
2020 11 23 09  03 22 02.475   +46 16 59.74  .12712 1.1023 153.2 21.1 5.9m  79
2020 11 23 10  03 22 22.446   +46 13 39.70  .12728 1.1025 153.3 21.1 4.6m  48
2020 11 23 11  03 22 42.328   +46 10 19.86  .12744 1.1027 153.3 21.1 5.4m  11
2020 11 23 12  03 23 02.124   +46 07 00.22  .12761 1.1029 153.4 21.1 7.7m 169
2020 11 23 13  03 23 21.833   +46 03 40.77  .12777 1.1032 153.5 21.1 .011 158
2020 11 23 14  03 23 41.455   +46 00 21.52  .12794 1.1034 153.5 21.1 .014 152
2020 11 23 15  03 24 00.991   +45 57 02.48  .12810 1.1036 153.6 21.1 .018 148
2020 11 23 16  03 24 20.442   +45 53 43.64  .12826 1.1038 153.7 21.1 .022 145
2020 11 23 17  03 24 39.808   +45 50 25.00  .12843 1.1040 153.7 21.1 .025 144
2020 11 23 18  03 24 59.089   +45 47 06.58  .12860 1.1042 153.8 21.1 .030 142
2020 11 23 19  03 25 18.286   +45 43 48.36  .12876 1.1044 153.9 21.1 .034 141
2020 11 23 20  03 25 37.400   +45 40 30.36  .12893 1.1046 153.9 21.1 .038 141
2020 11 23 21  03 25 56.430   +45 37 12.57  .12909 1.1048 154.0 21.1 .043 140
2020 11 23 22  03 26 15.377   +45 33 54.99  .12926 1.1050 154.1 21.1 .047 140
2020 11 23 23  03 26 34.242   +45 30 37.63  .12943 1.1052 154.1 21.1 .052 139
2020 11 24 00  03 26 53.025   +45 27 20.49  .12959 1.1054 154.2 21.1 .057 139
2020 11 24 01  03 27 11.727   +45 24 03.57  .12976 1.1056 154.3 21.1 .062 139
2020 11 24 02  03 27 30.347   +45 20 46.87  .12993 1.1058 154.3 21.1 .067 139
2020 11 24 03  03 27 48.887   +45 17 30.39  .13010 1.1060 154.4 21.1 .072 139
2020 11 24 04  03 28 07.347   +45 14 14.14  .13027 1.1062 154.5 21.1 .078 139
2020 11 24 05  03 28 25.727   +45 10 58.11  .13044 1.1064 154.5 21.1 .083 139
2020 11 24 06  03 28 44.027   +45 07 42.31  .13061 1.1066 154.6 21.1 .089 139
2020 11 24 07  03 29 02.248   +45 04 26.74  .13078 1.1068 154.7 21.1 .094 139
2020 11 24 08  03 29 20.391   +45 01 11.40  .13095 1.1071 154.7 21.1 .100 139
2020 11 24 09  03 29 38.456   +44 57 56.30  .13112 1.1073 154.8 21.1 .106 139
2020 11 24 10  03 29 56.443   +44 54 41.42  .13129 1.1075 154.9 21.1 .112 139
2020 11 24 11  03 30 14.353   +44 51 26.79  .13146 1.1077 154.9 21.1 .118 139
2020 11 24 12  03 30 32.186   +44 48 12.39  .13163 1.1079 155.0 21.1 .125 139
2020 11 24 13  03 30 49.942   +44 44 58.22  .13180 1.1081 155.1 21.1 .131 139
2020 11 24 14  03 31 07.622   +44 41 44.30  .13197 1.1083 155.1 21.1 .137 139
2020 11 24 15  03 31 25.227   +44 38 30.61  .13214 1.1085 155.2 21.1 .144 139
2020 11 24 16  03 31 42.756   +44 35 17.17  .13232 1.1087 155.3 21.1 .151 139
2020 11 24 17  03 32 00.210   +44 32 03.97  .13249 1.1089 155.3 21.1 .157 139
2020 11 24 18  03 32 17.590   +44 28 51.02  .13266 1.1091 155.4 21.1 .164 139
2020 11 24 19  03 32 34.896   +44 25 38.31  .13284 1.1093 155.5 21.1 .171 139
2020 11 24 20  03 32 52.128   +44 22 25.84  .13301 1.1096 155.5 21.1 .178 139
2020 11 24 21  03 33 09.287   +44 19 13.63  .13318 1.1098 155.6 21.1 .186 139
2020 11 24 22  03 33 26.372   +44 16 01.66  .13336 1.1100 155.7 21.1 .193 139
2020 11 24 23  03 33 43.386   +44 12 49.95  .13353 1.1102 155.7 21.1 .200 139
2020 11 25 00  03 34 00.327   +44 09 38.49  .13371 1.1104 155.8 21.1 .208 139
2020 11 25 01  03 34 17.196   +44 06 27.27  .13388 1.1106 155.9 21.1 .215 139
2020 11 25 02  03 34 33.994   +44 03 16.32  .13406 1.1108 155.9 21.1 .223 139
2020 11 25 03  03 34 50.721   +44 00 05.61  .13423 1.1110 156.0 21.1 .231 140
2020 11 25 04  03 35 07.377   +43 56 55.17  .13441 1.1112 156.1 21.1 .239 140
2020 11 25 05  03 35 23.963   +43 53 44.98  .13459 1.1114 156.1 21.1 .247 140
2020 11 25 06  03 35 40.478   +43 50 35.05  .13476 1.1117 156.2 21.1 .255 140